Regional Weather Roundup
Issued by NWS

Home | Current Version | Previous Version | Text Only | Print | Product List | Glossary On
Versions: 1 2 3 4 5 6 7 8 9 10 11 12 13 14 15 16 17 18 19 20 21 22 23 24 25 26 27 28 29 30 31 32 33 34 35 36 37 38 39 40 41 42 43 44 45 46 47 48 49 50
000
ASHW40 PHFO 011710
RWRHI

WEATHER ROUNDUP FOR HAWAII
NATIONAL WEATHER SERVICE HONOLULU HI
700 AM HST SAT AUG 01 2015

THIS IS AN AUTOMATED REPORT THAT HAS NOT BEEN QUALITY CONTROLLED.

NOTE..."FAIR" INDICATES FEW OR NO CLOUDS BELOW 12,000 FEET WITH NO
SIGNIFICANT WEATHER AND/OR OBSTRUCTIONS TO VISIBILITY.

* - THESE SITES REPORT LIMITED FIELDS

HIZ001>004-011800-
KAUAI-NIIHAU-

CITY           SKY/WX    TMP DP  RH WIND       PRES   REMARKS
LIHUE APT      MOSUNNY   80  70  71 NE15      30.01R
PORT ALLEN*    NOT AVBL
POIPU*           N/A     79 N/A N/A NE7G13      N/A
PRINCEVILLE*     N/A     73 N/A N/A MISG        N/A
KOKOLE POINT*  NOT AVBL
MOLOAA DAIRY*  NOT AVBL
WAIMEA HTS*    NOT AVBL
PUU OPAE*      NOT AVBL
PUU LUA*       NOT AVBL
MAKAHA RIDGE*  NOT AVBL
$$

HIZ005>011-011800-
OAHU-

CITY           SKY/WX    TMP DP  RH WIND       PRES   REMARKS
HONOLULU       PTSUNNY   79  70  74 NE10      29.96R
KALAELOA       MOSUNNY   75  67  76 VRB3      29.97R
KANEOHE MCB    PTSUNNY   78  71  79 E9        29.95R
WHEELER FIELD  NOT AVBL
BELLOWS*       NOT AVBL
KAHUKU*        NOT AVBL
WHEELER*       NOT AVBL
WAIANAE HARBOR NOT AVBL
DILLINGHAM*      N/A     73  70  88 MISG        N/A
KAHUKU TRN*      N/A     75  66  73 E9G20       N/A
KAWAILOA*        N/A     73  68  83 E12G23      N/A
KII*             N/A     81  73  78 E15         N/A
MAKUA RANGE*     N/A     79  68  69 E6G16       N/A
OAHU FOREST NW NOT AVBL
SCHOFIELD BRK*   N/A     66  61  82 CALM        N/A
SCHOFIELD S*   NOT AVBL
WAIANAE VLY*   NOT AVBL
KUAOKALA*      NOT AVBL
HONOULIUULI*   NOT AVBL
MOKUOLOE IS*     N/A    N/A N/A N/A MISG        N/A
PALEHUA*       NOT AVBL
WAIAWA PHB*    NOT AVBL
$$

HIZ012>013-011800-
MOLOKAI-

CITY           SKY/WX    TMP DP  RH WIND       PRES   REMARKS
MOLOKAI AIRPT  MOSUNNY   77  70  78 NE15G23   29.97R
KALAUPAPA      NOT AVBL
MAKAPULAPAI*   NOT AVBL
MOLOKAI 1*     NOT AVBL
PUU ALII*      NOT AVBL
$$

HIZ016-011800-
KAHOOLAWE-

CITY           SKY/WX    TMP DP  RH WIND       PRES   REMARKS
KAHOOLAWE*     NOT AVBL
HAKIOAWA*      NOT AVBL
HONOKANAIA*      N/A     80  69  68 N7G22     29.96R
KANELOA*         N/A     75  68  78 NE18G29     N/A
KEALIALALO*    NOT AVBL
LUA MAKIKA*    NOT AVBL
$$

HIZ014>015-011800-
LANAI-

CITY           SKY/WX    TMP DP  RH WIND       PRES   REMARKS
LANAI CITY     CLOUDY    73  67  81 E5        30.01R
LANAI 1*       NOT AVBL
$$

HIZ017>028-011800-
MAUI-

CITY           SKY/WX    TMP DP  RH WIND       PRES   REMARKS
KAHULUI        MOSUNNY   79  69  71 NE13      29.97R
KAPALUA-W MAUI PTSUNNY   75  68  78 NE12      29.96R
HANA AIRPORT   CLOUDY    77  73  88 CALM      30.01S
HANA*          NOT AVBL
HALEAKALA SUMM   N/A     54  23  30 NE14G25     N/A
MAALAEA BAY*   NOT AVBL
HALEAKALA*     NOT AVBL
KAUPO GAP*     NOT AVBL
KULA 1*          N/A     56  36  47 E5          N/A
$$

HIZ023>026-011800-
BIG ISLAND OF HAWAII COAST AND LOWER SLOPES-

CITY           SKY/WX    TMP DP  RH WIND       PRES   REMARKS
KAILUA KONA    SUNNY     79  69  71 NE3       29.91R
HILO           PTSUNNY   73  69  87 SW7       29.97R
HONOKAA*       NOT AVBL
KAWAIHAE MWT*  NOT AVBL
KAWAIHAE*        N/A     82 N/A N/A NW5         N/A
SOUTH POINT*   NOT AVBL
UPOLU AIRPORT* NOT AVBL
KAMUELA*       PTSUNNY   66  64  94 NE12      30.06S
HAKALAU*         N/A     50  40  69 SW5         N/A
KALOKO-HONOKO* NOT AVBL
PALI 2*          N/A     73  48  40 N12G21      N/A
KEALAKOMO*       N/A     82  63  51 N24G40      N/A
KAUPULEHU*     NOT AVBL
KAPAPALA*        N/A     62  54  75 VRB6        N/A
LOWER KAHUKU*  NOT AVBL
PUHE CS*       NOT AVBL
PUHO CS*       NOT AVBL
PTA KEAMUKU*     N/A     64  57  77 CALM        N/A
WAIKOLOA*      NOT AVBL
$$

HIZ027>028-011800-
BIG ISLAND OF HAWAII INTERIOR AND SUMMMITS-

CITY           SKY/WX    TMP DP  RH WIND       PRES   REMARKS
BRADSHAW FIELD CLOUDY    52  38  58 SE5       30.28R
MK VISITOR CEN   N/A      0   0 100 MISG        N/A
MAUNA KEA*       N/A     46  -6  11 E15         N/A
MAUNA LOA*       N/A     50   0  12 MISG        N/A
MAUNA LOA 1*   NOT AVBL
PTA KIPUKA*      N/A     57  54  88 SE3G9       N/A
PTA RANGE 17*    N/A     54  37  54 E8G14       N/A
PTA WEST*        N/A     75  70  83 SE9G15      N/A
NENE CABIN*    NOT AVBL
AHUMOA*        NOT AVBL
PTA PORTABLE*  NOT AVBL
PUU MALI*        N/A    N/A N/A N/A E14G24      N/A
$$

HIC003-011800-
NORTHWEST ISLANDS-

CITY           SKY/WX    TMP DP  RH WIND       PRES   REMARKS
MIDWAY ISLAND  CLEAR     75  72  88 E3        29.99S
MIDWAY NOS*    NOT AVBL
FRENCH FRIGATE NOT AVBL
$$

PHZ110>124-180-011800-
BUOY REPORTS

STATION/POSITION TIME  TEMP    WIND        PRES    WAVE   SWELL
                       AIR SEA DIR/SP/G            HT/PER HT/DIR
                 (UTC) (F)     (DEG/KT/KT) (MB)    (FT/S) (FT/D)
BUOY 51001       NOT AVBL
BUOY 51101       1700   80 80  100/ 16/ 17 1016.0R   6/ 8   3/100
BUOY 51100       NOT AVBL
BUOY 51002       1700   81 82   70/ 14/ 17 1012.2R   7/ 8   5/ 90
BUOY 51003       1600   81 82   80/ 16/ 17 1012.6F   7/ 8   5
BUOY 51004       1635   81 81   50/ 17/ 21 1010.5R   9/10   5/ 90
BARBERS PT BUOY  NOT AVBL
WAIMEA BAY BUOY  1700      81                N/A     4/ 7
KAILUA BAY BUOY  1700      80                N/A     6/ 7   2/100
LANAI BUOY       NOT AVBL
BARBERS PT 2     1700      82                N/A     5/14   2/180
PAUWELA MAUI     1700      79                N/A     6/ 7   2/ 90
HILO             NOT AVBL
KANEOHE BAY BUOY 1700      79                N/A     5/ 7
HANALEI KAUAI    1700      81                N/A     4/ 7   2/100
KAHULUI HARBOR   1700   78 81   10/  9/ 11 1014.5R
HONOLULU HARBOR  1700   78 81   70/  4/  7 1014.4S
KILO NALU        NOT AVBL
HILO HARBOR      1700   75 78  230/  6/  7 1014.4R
MOKUOLOE         1700      83              1014.9R
NAWILIWILI       1700   79 83   50/  8/ 12 1015.4R
WHOTS BUOY       NOT AVBL
BUOY 51028       NOT AVBL
$$

......................KEY........................................
  SKY/WX - SKY CONDITIONS/PRESENT WEATHER
  TMP    - TEMPERATURE IN FAHRENHEIT
  DWPT   - DEWPOINT IN FAHRENHEIT
  RH     - RELATIVE HUMIDITY IN PERCENT
  WIND   - DIRECTION AND SPEED /MPH FOR ISLANDS...KTS FOR BUOYS/
  PRES   - MEAN SEA LEVEL PRESSURE IN INCHES OF HG
  VSB    - VISIBILITY IN MILES
  HX     - HEAT INDEX
  WCI    - WIND CHILL INDEX
  VRB    - VARIABLE WIND DIRECTION
  N/A    - NOT AVAILABLE



USA.gov is the U.S. government's official web portal to all federal, state and local government web resources and services.